User: anonymous   Login
Location: Edinburgh
(55.9500°N, 3.1600°W)
Time: 13:37:58
(UTC+01:00)
Language:

Tiangong 2 - Orbit

View from above orbital plane
View from above orbital plane
View from above satellite
View from above satellite

Ground track
Ground track

The orbit data is extracted from the following two-line orbital elements,

1 41765U 16057A   18112.07454885  .00005162  00000-0  64146-4 0  9995
2 41765  42.7852 317.4735 0004346 247.2462 254.8157 15.61021658 91217
Epoch (UTC): 22 April 2018 01:47:21
Eccentricity: 0.0004346
inclination: 42.7852°
perigee height: 382 km
apogee height: 387 km
right ascension of ascending node: 317.4735°
argument of perigee: 247.2462°
revolutions per day: 15.61021658
mean anomaly at epoch: 254.8157°
orbit number at epoch: 9121

The dashed part of the orbit path shows where the satellite is in the earth's shadow,  

DLR